Time,TemperatureF,DewpointF,PressureIn,WindDirection,WindDirectionDegrees,WindSpeedMPH,WindSpeedGustMPH,Humidity,HourlyPrecipIn,Conditions,Clouds,dailyrainin,SoftwareType,DateUTC
2013-04-06 00:00:00,33.2,25.2,30.22,SE,130,1.0,3.0,72,0.00,,---,0.00,VWS V14.01,2013-04-06 05:00:00,
2013-04-06 00:05:00,33.1,25.1,30.22,ESE,112,0.0,4.0,72,0.00,,---,0.00,VWS V14.01,2013-04-06 05:05:00,
2013-04-06 00:10:00,32.9,25.2,30.22,ESE,113,1.0,4.0,73,0.00,,---,0.00,VWS V14.01,2013-04-06 05:10:00,
2013-04-06 00:15:00,32.6,24.9,30.22,SSE,150,0.0,4.0,73,0.00,,---,0.00,VWS V14.01,2013-04-06 05:15:00,
2013-04-06 00:20:00,32.5,25.1,30.22,ENE,77,0.0,4.0,74,0.00,,---,0.00,VWS V14.01,2013-04-06 05:20:00,
2013-04-06 00:25:00,32.5,25.1,30.23,East,98,1.0,4.0,74,0.00,,---,0.00,VWS V14.01,2013-04-06 05:25:00,
2013-04-06 00:30:00,32.4,25.0,30.23,ESE,107,0.0,0.0,74,0.00,,---,0.00,VWS V14.01,2013-04-06 05:30:00,
2013-04-06 00:35:00,32.4,25.4,30.23,ESE,109,1.0,4.0,75,0.00,,---,0.00,VWS V14.01,2013-04-06 05:35:00,
2013-04-06 00:40:00,32.5,25.1,30.23,ENE,70,1.0,4.0,74,0.00,,---,0.00,VWS V14.01,2013-04-06 05:40:00,
2013-04-06 00:45:00,32.4,25.0,30.23,North,10,1.0,4.0,74,0.00,,---,0.00,VWS V14.01,2013-04-06 05:45:00,
2013-04-06 00:50:00,32.6,25.2,30.23,East,98,0.0,4.0,74,0.00,,---,0.00,VWS V14.01,2013-04-06 05:50:00,
2013-04-06 00:55:00,32.9,25.2,30.23,East,95,0.0,5.0,73,0.00,,---,0.00,VWS V14.01,2013-04-06 05:55:00,
2013-04-06 01:00:00,33.0,25.0,30.24,East,89,5.0,5.0,72,0.00,,---,0.00,VWS V14.01,2013-04-06 06:00:00,
2013-04-06 01:05:00,33.1,24.7,30.24,ESE,103,1.0,5.0,71,0.00,,---,0.00,VWS V14.01,2013-04-06 06:05:00,
2013-04-06 01:10:00,33.3,24.9,30.24,SE,134,1.0,5.0,71,0.00,,---,0.00,VWS V14.01,2013-04-06 06:10:00,
2013-04-06 01:15:00,33.3,24.9,30.24,SE,124,1.0,5.0,71,0.00,,---,0.00,VWS V14.01,2013-04-06 06:15:00,
2013-04-06 01:20:00,33.3,24.6,30.24,ESE,106,3.0,5.0,70,0.00,,---,0.00,VWS V14.01,2013-04-06 06:20:00,
2013-04-06 01:25:00,33.5,24.4,30.24,SE,127,3.0,5.0,69,0.00,,---,0.00,VWS V14.01,2013-04-06 06:25:00,
2013-04-06 01:30:00,33.5,24.4,30.24,ESE,109,2.0,3.0,69,0.00,,---,0.00,VWS V14.01,2013-04-06 06:30:00,
2013-04-06 01:35:00,33.6,24.2,30.24,East,89,1.0,3.0,68,0.00,,---,0.00,VWS V14.01,2013-04-06 06:35:00,
2013-04-06 01:40:00,33.7,24.3,30.24,ESE,114,0.0,5.0,68,0.00,,---,0.00,VWS V14.01,2013-04-06 06:40:00,
2013-04-06 01:45:00,33.7,23.9,30.24,ESE,115,3.0,5.0,67,0.00,,---,0.00,VWS V14.01,2013-04-06 06:45:00,
2013-04-06 01:50:00,33.8,23.7,30.24,ENE,77,2.0,5.0,66,0.00,,---,0.00,VWS V14.01,2013-04-06 06:50:00,
2013-04-06 01:55:00,33.8,23.3,30.23,ESE,117,1.0,5.0,65,0.00,,---,0.00,VWS V14.01,2013-04-06 06:55:00,
2013-04-06 02:00:00,33.8,22.9,30.23,NE,56,3.0,4.0,64,0.00,,---,0.00,VWS V14.01,2013-04-06 07:00:00,
2013-04-06 02:05:00,33.9,22.3,30.23,ESE,118,1.0,6.0,62,0.00,,---,0.00,VWS V14.01,2013-04-06 07:05:00,
2013-04-06 02:10:00,33.9,22.3,30.23,ESE,118,1.0,6.0,62,0.00,,---,0.00,VWS V14.01,2013-04-06 07:10:00,
2013-04-06 02:15:00,33.9,21.9,30.23,ESE,117,0.0,6.0,61,0.00,,---,0.00,VWS V14.01,2013-04-06 07:15:00,
2013-04-06 02:20:00,33.9,21.9,30.23,ESE,117,2.0,6.0,61,0.00,,---,0.00,VWS V14.01,2013-04-06 07:20:00,
2013-04-06 02:25:00,33.9,21.5,30.24,East,101,0.0,6.0,60,0.00,,---,0.00,VWS V14.01,2013-04-06 07:25:00,
2013-04-06 02:30:00,34.0,20.8,30.23,SSE,148,1.0,2.0,58,0.00,,---,0.00,VWS V14.01,2013-04-06 07:30:00,
2013-04-06 02:36:00,34.0,20.8,30.24,ENE,61,0.0,4.0,58,0.00,,---,0.00,VWS V14.01,2013-04-06 07:36:00,
2013-04-06 02:41:00,34.0,20.8,30.24,ENE,75,1.0,5.0,58,0.00,,---,0.00,VWS V14.01,2013-04-06 07:41:00,
2013-04-06 02:46:00,34.0,20.8,30.23,ESE,110,4.0,5.0,58,0.00,,---,0.00,VWS V14.01,2013-04-06 07:46:00,
2013-04-06 02:51:00,34.1,20.9,30.24,SSE,161,1.0,5.0,58,0.00,,---,0.00,VWS V14.01,2013-04-06 07:51:00,
2013-04-06 02:56:00,34.1,20.5,30.24,ESE,103,2.0,5.0,57,0.00,,---,0.00,VWS V14.01,2013-04-06 07:56:00,
2013-04-06 03:00:00,34.1,20.5,30.24,ENE,66,1.0,5.0,57,0.00,,---,0.00,VWS V14.01,2013-04-06 08:00:00,
2013-04-06 03:01:00,34.1,20.5,30.24,SE,124,1.0,3.0,57,0.00,,---,0.00,VWS V14.01,2013-04-06 08:01:00,
2013-04-06 03:05:00,34.1,20.5,30.23,East,89,2.0,3.0,57,0.00,,---,0.00,VWS V14.01,2013-04-06 08:05:00,
2013-04-06 03:10:00,34.1,20.5,30.24,SSE,148,1.0,4.0,57,0.00,,---,0.00,VWS V14.01,2013-04-06 08:10:00,
2013-04-06 03:15:00,34.2,20.6,30.23,NE,42,2.0,4.0,57,0.00,,---,0.00,VWS V14.01,2013-04-06 08:15:00,
2013-04-06 03:20:00,34.2,20.6,30.23,ENE,67,3.0,6.0,57,0.00,,---,0.00,VWS V14.01,2013-04-06 08:20:00,
2013-04-06 03:25:00,34.2,20.6,30.23,ESE,114,1.0,6.0,57,0.00,,---,0.00,VWS V14.01,2013-04-06 08:25:00,
2013-04-06 03:30:00,34.3,20.2,30.23,ESE,115,0.0,6.0,56,0.00,,---,0.00,VWS V14.01,2013-04-06 08:30:00,
2013-04-06 03:35:00,34.3,20.2,30.24,SSE,158,1.0,6.0,56,0.00,,---,0.00,VWS V14.01,2013-04-06 08:35:00,
2013-04-06 03:40:00,34.3,20.2,30.24,East,100,0.0,6.0,56,0.00,,---,0.00,VWS V14.01,2013-04-06 08:40:00,
2013-04-06 03:45:00,34.3,20.2,30.23,SE,127,1.0,6.0,56,0.00,,---,0.00,VWS V14.01,2013-04-06 08:45:00,
2013-04-06 03:50:00,34.3,20.2,30.24,East,96,2.0,6.0,56,0.00,,---,0.00,VWS V14.01,2013-04-06 08:50:00,
2013-04-06 03:55:00,34.3,20.2,30.24,ESE,109,0.0,6.0,56,0.00,,---,0.00,VWS V14.01,2013-04-06 08:55:00,
2013-04-06 04:00:00,34.4,19.9,30.24,SSE,150,1.0,4.0,55,0.00,,---,0.00,VWS V14.01,2013-04-06 09:00:00,
2013-04-06 04:05:00,34.4,20.3,30.24,East,82,0.0,4.0,56,0.00,,---,0.00,VWS V14.01,2013-04-06 09:05:00,
2013-04-06 04:10:00,34.5,20.4,30.24,SE,136,1.0,4.0,56,0.00,,---,0.00,VWS V14.01,2013-04-06 09:10:00,
2013-04-06 04:15:00,34.5,20.0,30.24,East,87,1.0,6.0,55,0.00,,---,0.00,VWS V14.01,2013-04-06 09:15:00,
2013-04-06 04:20:00,34.5,20.4,30.24,ENE,73,0.0,6.0,56,0.00,,---,0.00,VWS V14.01,2013-04-06 09:20:00,
2013-04-06 04:26:00,34.5,20.4,30.24,East,98,0.0,6.0,56,0.00,,---,0.00,VWS V14.01,2013-04-06 09:26:00,
2013-04-06 04:30:00,34.5,20.4,30.24,East,96,0.0,6.0,56,0.00,,---,0.00,VWS V14.01,2013-04-06 09:30:00,
2013-04-06 04:31:00,34.5,20.4,30.25,East,91,1.0,2.0,56,0.00,,---,0.00,VWS V14.01,2013-04-06 09:31:00,
2013-04-06 04:36:00,34.4,20.3,30.24,ENE,60,0.0,5.0,56,0.00,,---,0.00,VWS V14.01,2013-04-06 09:36:00,
2013-04-06 04:41:00,34.4,20.3,30.25,ESE,117,0.0,6.0,56,0.00,,---,0.00,VWS V14.01,2013-04-06 09:41:00,
2013-04-06 04:46:00,34.4,20.3,30.25,SW,217,0.0,6.0,56,0.00,,---,0.00,VWS V14.01,2013-04-06 09:46:00,
2013-04-06 04:51:00,34.4,20.3,30.25,SE,141,0.0,6.0,56,0.00,,---,0.00,VWS V14.01,2013-04-06 09:51:00,
2013-04-06 04:56:00,34.4,20.3,30.25,SE,134,1.0,6.0,56,0.00,,---,0.00,VWS V14.01,2013-04-06 09:56:00,
2013-04-06 05:00:00,34.4,20.3,30.25,ESE,111,1.0,6.0,56,0.00,,---,0.00,VWS V14.01,2013-04-06 10:00:00,
2013-04-06 05:01:00,34.4,20.3,30.25,East,82,3.0,3.0,56,0.00,,---,0.00,VWS V14.01,2013-04-06 10:01:00,
2013-04-06 05:05:00,34.4,20.3,30.25,ESE,103,2.0,5.0,56,0.00,,---,0.00,VWS V14.01,2013-04-06 10:05:00,
2013-04-06 05:10:00,34.4,20.8,30.25,ESE,117,2.0,6.0,57,0.00,,---,0.00,VWS V14.01,2013-04-06 10:10:00,
2013-04-06 05:16:00,34.3,20.7,30.25,SE,134,2.0,6.0,57,0.00,,---,0.00,VWS V14.01,2013-04-06 10:16:00,
2013-04-06 05:21:00,34.3,20.7,30.25,East,91,2.0,6.0,57,0.00,,---,0.00,VWS V14.01,2013-04-06 10:21:00,
2013-04-06 05:26:00,34.3,20.7,30.26,ESE,122,2.0,6.0,57,0.00,,---,0.00,VWS V14.01,2013-04-06 10:26:00,
2013-04-06 05:30:00,34.2,21.0,30.25,East,96,0.0,4.0,58,0.00,,---,0.00,VWS V14.01,2013-04-06 10:30:00,
2013-04-06 05:36:00,34.2,21.0,30.25,ESE,113,0.0,4.0,58,0.00,,---,0.00,VWS V14.01,2013-04-06 10:36:00,
2013-04-06 05:40:00,34.2,21.0,30.25,ESE,113,2.0,4.0,58,0.00,,---,0.00,VWS V14.01,2013-04-06 10:40:00,
2013-04-06 05:45:00,34.2,21.4,30.25,ENE,63,0.0,4.0,59,0.00,,---,0.00,VWS V14.01,2013-04-06 10:45:00,
2013-04-06 05:50:00,34.2,21.0,30.26,SE,143,0.0,4.0,58,0.00,,---,0.00,VWS V14.01,2013-04-06 10:50:00,
2013-04-06 05:55:00,34.2,21.0,30.25,SE,128,4.0,4.0,58,0.00,,---,0.00,VWS V14.01,2013-04-06 10:55:00,
2013-04-06 06:00:00,34.2,21.0,30.26,SE,146,0.0,4.0,58,0.00,,---,0.00,VWS V14.01,2013-04-06 11:00:00,
2013-04-06 06:06:00,34.2,21.0,30.26,ESE,117,1.0,4.0,58,0.00,,---,0.00,VWS V14.01,2013-04-06 11:06:00,
2013-04-06 06:11:00,34.3,20.7,30.26,NE,54,0.0,4.0,57,0.00,,---,0.00,VWS V14.01,2013-04-06 11:11:00,
2013-04-06 06:16:00,34.3,20.7,30.26,East,100,0.0,5.0,57,0.00,,---,0.00,VWS V14.01,2013-04-06 11:16:00,
2013-04-06 06:21:00,34.4,20.3,30.26,East,94,2.0,7.0,56,0.00,,---,0.00,VWS V14.01,2013-04-06 11:21:00,
2013-04-06 06:26:00,34.4,20.3,30.25,East,100,3.0,7.0,56,0.00,,---,0.00,VWS V14.01,2013-04-06 11:26:00,
2013-04-06 06:30:00,34.4,20.3,30.25,ENE,71,2.0,7.0,56,0.00,,---,0.00,VWS V14.01,2013-04-06 11:30:00,
2013-04-06 06:31:00,34.4,19.9,30.25,SE,124,1.0,6.0,55,0.00,,---,0.00,VWS V14.01,2013-04-06 11:31:00,
2013-04-06 06:33:00,34.4,19.9,30.26,SE,135,1.0,6.0,55,0.00,,---,0.00,VWS V14.01,2013-04-06 11:33:00,
2013-04-06 06:38:00,34.5,19.1,30.26,SE,130,2.0,12.0,53,0.00,,---,0.00,VWS V14.01,2013-04-06 11:38:00,
2013-04-06 06:43:00,34.6,19.2,30.26,ENE,72,0.0,12.0,53,0.00,,---,0.00,VWS V14.01,2013-04-06 11:43:00,
2013-04-06 06:48:00,34.6,18.8,30.26,NE,37,4.0,12.0,52,0.00,,---,0.00,VWS V14.01,2013-04-06 11:48:00,
2013-04-06 06:53:00,34.6,18.3,30.26,SE,134,1.0,12.0,51,0.00,,---,0.00,VWS V14.01,2013-04-06 11:53:00,
2013-04-06 06:58:00,34.7,17.5,30.26,East,99,3.0,12.0,49,0.00,,---,0.00,VWS V14.01,2013-04-06 11:58:00,
2013-04-06 07:00:00,34.7,17.5,30.26,ESE,120,2.0,12.0,49,0.00,,---,0.00,VWS V14.01,2013-04-06 12:00:00,
2013-04-06 07:03:00,34.8,18.1,30.27,East,96,1.0,5.0,50,0.00,,---,0.00,VWS V14.01,2013-04-06 12:03:00,
2013-04-06 07:08:00,34.9,17.2,30.27,SE,136,2.0,8.0,48,0.00,,---,0.00,VWS V14.01,2013-04-06 12:08:00,
2013-04-06 07:13:00,35.0,17.3,30.27,East,79,1.0,8.0,48,0.00,,---,0.00,VWS V14.01,2013-04-06 12:13:00,
2013-04-06 07:18:00,35.0,16.8,30.26,ESE,105,1.0,8.0,47,0.00,,---,0.00,VWS V14.01,2013-04-06 12:18:00,
2013-04-06 07:23:00,35.2,17.0,30.26,SE,130,3.0,8.0,47,0.00,,---,0.00,VWS V14.01,2013-04-06 12:23:00,
2013-04-06 07:28:00,35.3,17.1,30.26,East,80,2.0,8.0,47,0.00,,---,0.00,VWS V14.01,2013-04-06 12:28:00,
2013-04-06 07:30:00,35.3,17.1,30.26,East,80,2.0,8.0,47,0.00,,---,0.00,VWS V14.01,2013-04-06 12:30:00,
2013-04-06 07:33:00,35.5,16.8,30.26,SE,127,2.0,7.0,46,0.00,,---,0.00,VWS V14.01,2013-04-06 12:33:00,
2013-04-06 07:38:00,35.8,17.6,30.27,East,82,2.0,7.0,47,0.00,,---,0.00,VWS V14.01,2013-04-06 12:38:00,
2013-04-06 07:43:00,36.0,17.2,30.27,ESE,105,2.0,10.0,46,0.00,,---,0.00,VWS V14.01,2013-04-06 12:43:00,
2013-04-06 07:48:00,36.3,17.0,30.27,ESE,117,4.0,10.0,45,0.00,,---,0.00,VWS V14.01,2013-04-06 12:48:00,
2013-04-06 07:53:00,36.4,17.1,30.27,ENE,68,6.0,10.0,45,0.00,,---,0.00,VWS V14.01,2013-04-06 12:53:00,
2013-04-06 07:58:00,36.6,16.8,30.28,East,99,7.0,10.0,44,0.00,,---,0.00,VWS V14.01,2013-04-06 12:58:00,
2013-04-06 08:00:00,36.6,16.8,30.28,East,96,7.0,10.0,44,0.00,,---,0.00,VWS V14.01,2013-04-06 13:00:00,
2013-04-06 08:03:00,37.0,17.1,30.28,SE,124,3.0,7.0,44,0.00,,---,0.00,VWS V14.01,2013-04-06 13:03:00,
2013-04-06 08:08:00,37.1,17.2,30.28,SSE,167,2.0,14.0,44,0.00,,---,0.00,VWS V14.01,2013-04-06 13:08:00,
2013-04-06 08:13:00,37.3,16.9,30.28,SSE,156,1.0,14.0,43,0.00,,---,0.00,VWS V14.01,2013-04-06 13:13:00,
2013-04-06 08:18:00,37.4,17.5,30.28,ENE,73,2.0,14.0,44,0.00,,---,0.00,VWS V14.01,2013-04-06 13:18:00,
2013-04-06 08:23:00,37.4,17.0,30.28,East,93,3.0,14.0,43,0.00,,---,0.00,VWS V14.01,2013-04-06 13:23:00,
2013-04-06 08:28:00,37.2,16.8,30.27,SE,145,4.0,5.0,43,0.00,,---,0.00,VWS V14.01,2013-04-06 13:28:00,
2013-04-06 08:30:00,37.2,16.8,30.27,ESE,122,5.0,14.0,43,0.00,,---,0.00,VWS V14.01,2013-04-06 13:30:00,
2013-04-06 08:33:00,37.1,17.2,30.27,SSE,150,4.0,9.0,44,0.00,,---,0.00,VWS V14.01,2013-04-06 13:33:00,
2013-04-06 08:38:00,37.3,17.4,30.26,East,96,1.0,10.0,44,0.00,,---,0.00,VWS V14.01,2013-04-06 13:38:00,
2013-04-06 08:43:00,37.5,17.0,30.26,ESE,111,4.0,10.0,43,0.00,,---,0.00,VWS V14.01,2013-04-06 13:43:00,
2013-04-06 08:48:00,37.5,17.6,30.25,East,96,3.0,11.0,44,0.00,,---,0.00,VWS V14.01,2013-04-06 13:48:00,
2013-04-06 08:53:00,37.8,18.4,30.26,East,89,2.0,11.0,45,0.00,,---,0.00,VWS V14.01,2013-04-06 13:53:00,
2013-04-06 08:58:00,38.0,17.5,30.25,ESE,105,2.0,2.0,43,0.00,,---,0.00,VWS V14.01,2013-04-06 13:58:00,
2013-04-06 09:00:00,38.0,17.5,30.26,SE,129,2.0,11.0,43,0.00,,---,0.00,VWS V14.01,2013-04-06 14:00:00,
2013-04-06 09:03:00,38.1,17.6,30.25,SE,131,3.0,11.0,43,0.00,,---,0.00,VWS V14.01,2013-04-06 14:03:00,
2013-04-06 09:08:00,38.4,17.9,30.24,ESE,114,3.0,13.0,43,0.00,,---,0.00,VWS V14.01,2013-04-06 14:08:00,
2013-04-06 09:13:00,39.0,18.4,30.24,ESE,123,4.0,13.0,43,0.00,,---,0.00,VWS V14.01,2013-04-06 14:13:00,
2013-04-06 09:18:00,40.0,19.3,30.24,ESE,115,5.0,13.0,43,0.00,,---,0.00,VWS V14.01,2013-04-06 14:18:00,
2013-04-06 09:23:00,40.6,19.3,30.24,SSE,148,2.0,13.0,42,0.00,,---,0.00,VWS V14.01,2013-04-06 14:23:00,
2013-04-06 09:28:00,41.4,20.0,30.24,SSE,150,4.0,4.0,42,0.00,,---,0.00,VWS V14.01,2013-04-06 14:28:00,
2013-04-06 09:30:00,41.4,20.0,30.24,ESE,108,4.0,13.0,42,0.00,,---,0.00,VWS V14.01,2013-04-06 14:30:00,
2013-04-06 09:33:00,42.0,20.0,30.24,SE,143,6.0,9.0,41,0.00,,---,0.00,VWS V14.01,2013-04-06 14:33:00,
2013-04-06 09:38:00,42.1,19.5,30.24,ESE,113,3.0,11.0,40,0.00,,---,0.00,VWS V14.01,2013-04-06 14:38:00,
2013-04-06 09:43:00,42.3,19.7,30.24,ESE,120,9.0,11.0,40,0.00,,---,0.00,VWS V14.01,2013-04-06 14:43:00,
2013-04-06 09:48:00,42.2,20.2,30.23,SE,135,2.0,11.0,41,0.00,,---,0.00,VWS V14.01,2013-04-06 14:48:00,
2013-04-06 09:53:00,42.3,20.3,30.23,SSE,148,7.0,11.0,41,0.00,,---,0.00,VWS V14.01,2013-04-06 14:53:00,
2013-04-06 09:58:00,42.6,19.4,30.23,SE,130,3.0,4.0,39,0.00,,---,0.00,VWS V14.01,2013-04-06 14:58:00,
2013-04-06 10:00:00,42.6,19.4,30.23,ESE,121,4.0,13.0,39,0.00,,---,0.00,VWS V14.01,2013-04-06 15:00:00,
2013-04-06 10:03:00,43.2,19.9,30.22,ESE,119,5.0,9.0,39,0.00,,---,0.00,VWS V14.01,2013-04-06 15:03:00,
2013-04-06 10:08:00,43.7,19.1,30.23,SSE,148,4.0,11.0,37,0.00,,---,0.00,VWS V14.01,2013-04-06 15:08:00,
2013-04-06 10:13:00,44.3,19.0,30.22,South,188,2.0,11.0,36,0.00,,---,0.00,VWS V14.01,2013-04-06 15:13:00,
2013-04-06 10:18:00,45.0,19.0,30.22,SSW,204,3.0,11.0,35,0.00,,---,0.00,VWS V14.01,2013-04-06 15:18:00,
2013-04-06 10:23:00,44.9,18.9,30.22,ESE,108,4.0,12.0,35,0.00,,---,0.00,VWS V14.01,2013-04-06 15:23:00,
2013-04-06 10:28:00,45.3,19.9,30.22,SSW,210,3.0,3.0,36,0.00,,---,0.00,VWS V14.01,2013-04-06 15:28:00,
2013-04-06 10:30:00,45.3,19.9,30.22,SE,125,2.0,12.0,36,0.00,,---,0.00,VWS V14.01,2013-04-06 15:30:00,
2013-04-06 10:33:00,45.6,20.2,30.21,SSE,148,3.0,11.0,36,0.00,,---,0.00,VWS V14.01,2013-04-06 15:33:00,
2013-04-06 10:38:00,46.0,19.9,30.21,SSE,150,7.0,12.0,35,0.00,,---,0.00,VWS V14.01,2013-04-06 15:38:00,
2013-04-06 10:43:00,46.1,20.6,30.21,East,89,8.0,13.0,36,0.00,,---,0.00,VWS V14.01,2013-04-06 15:43:00,
2013-04-06 10:48:00,46.7,20.5,30.21,SSW,194,7.0,15.0,35,0.00,,---,0.00,VWS V14.01,2013-04-06 15:48:00,
2013-04-06 10:53:00,47.3,21.0,30.21,East,94,5.0,15.0,35,0.00,,---,0.00,VWS V14.01,2013-04-06 15:53:00,
2013-04-06 10:58:00,47.5,21.2,30.21,South,179,7.0,8.0,35,0.00,,---,0.00,VWS V14.01,2013-04-06 15:58:00,
2013-04-06 11:00:00,47.5,21.2,30.21,SSW,212,8.0,15.0,35,0.00,,---,0.00,VWS V14.01,2013-04-06 16:00:00,
2013-04-06 11:03:00,47.8,21.5,30.21,SSW,198,4.0,8.0,35,0.00,,---,0.00,VWS V14.01,2013-04-06 16:03:00,
2013-04-06 11:08:00,48.1,21.8,30.20,SW,215,3.0,8.0,35,0.00,,---,0.00,VWS V14.01,2013-04-06 16:08:00,
2013-04-06 11:13:00,48.2,20.5,30.20,SE,146,4.0,17.0,33,0.00,,---,0.00,VWS V14.01,2013-04-06 16:13:00,
2013-04-06 11:18:00,48.5,22.1,30.20,SSE,160,2.0,17.0,35,0.00,,---,0.00,VWS V14.01,2013-04-06 16:18:00,
2013-04-06 11:23:00,49.2,21.3,30.20,SSE,168,11.0,17.0,33,0.00,,---,0.00,VWS V14.01,2013-04-06 16:23:00,
2013-04-06 11:28:00,49.5,21.6,30.20,ESE,107,8.0,17.0,33,0.00,,---,0.00,VWS V14.01,2013-04-06 16:28:00,
2013-04-06 11:30:00,49.5,21.6,30.20,SW,220,6.0,17.0,33,0.00,,---,0.00,VWS V14.01,2013-04-06 16:30:00,
2013-04-06 11:33:00,49.2,21.3,30.19,East,91,12.0,12.0,33,0.00,,---,0.00,VWS V14.01,2013-04-06 16:33:00,
2013-04-06 11:38:00,49.7,21.8,30.19,East,86,3.0,12.0,33,0.00,,---,0.00,VWS V14.01,2013-04-06 16:38:00,
2013-04-06 11:43:00,50.3,20.8,30.19,SSE,150,4.0,12.0,31,0.00,,---,0.00,VWS V14.01,2013-04-06 16:43:00,
2013-04-06 11:48:00,50.0,20.6,30.18,NE,55,4.0,12.0,31,0.00,,---,0.00,VWS V14.01,2013-04-06 16:48:00,
2013-04-06 11:53:00,49.7,21.1,30.18,SSE,148,3.0,12.0,32,0.00,,---,0.00,VWS V14.01,2013-04-06 16:53:00,
2013-04-06 11:58:00,49.8,19.6,30.18,South,191,4.0,12.0,30,0.00,,---,0.00,VWS V14.01,2013-04-06 16:58:00,
2013-04-06 12:00:00,49.8,19.6,30.18,South,191,4.0,12.0,30,0.00,,---,0.00,VWS V14.01,2013-04-06 17:00:00,
2013-04-06 12:03:00,50.1,19.9,30.17,South,179,6.0,11.0,30,0.00,,---,0.00,VWS V14.01,2013-04-06 17:03:00,
2013-04-06 12:08:00,50.6,20.3,30.17,ESE,110,10.0,11.0,30,0.00,,---,0.00,VWS V14.01,2013-04-06 17:08:00,
2013-04-06 12:13:00,50.6,21.1,30.17,NW,304,1.0,11.0,31,0.00,,---,0.00,VWS V14.01,2013-04-06 17:13:00,
2013-04-06 12:18:00,51.2,20.9,30.17,SE,132,3.0,11.0,30,0.00,,---,0.00,VWS V14.01,2013-04-06 17:18:00,
2013-04-06 12:23:00,51.5,21.1,30.17,South,190,5.0,11.0,30,0.00,,---,0.00,VWS V14.01,2013-04-06 17:23:00,
2013-04-06 12:28:00,51.2,20.9,30.17,SSE,154,8.0,13.0,30,0.00,,---,0.00,VWS V14.01,2013-04-06 17:28:00,
2013-04-06 12:30:00,51.2,20.9,30.17,SSE,154,8.0,13.0,30,0.00,,---,0.00,VWS V14.01,2013-04-06 17:30:00,
2013-04-06 12:33:00,51.0,20.7,30.17,South,188,2.0,10.0,30,0.00,,---,0.00,VWS V14.01,2013-04-06 17:33:00,
2013-04-06 12:38:00,51.3,21.7,30.15,SE,143,3.0,10.0,31,0.00,,---,0.00,VWS V14.01,2013-04-06 17:38:00,
2013-04-06 12:43:00,51.8,20.6,30.15,East,86,3.0,10.0,29,0.00,,---,0.00,VWS V14.01,2013-04-06 17:43:00,
2013-04-06 12:48:00,52.0,19.9,30.15,South,191,6.0,10.0,28,0.00,,---,0.00,VWS V14.01,2013-04-06 17:48:00,
2013-04-06 12:53:00,52.1,20.8,30.15,SSW,198,2.0,11.0,29,0.00,,---,0.00,VWS V14.01,2013-04-06 17:53:00,
2013-04-06 12:58:00,52.3,21.0,30.14,ESE,120,2.0,11.0,29,0.00,,---,0.00,VWS V14.01,2013-04-06 17:58:00,
2013-04-06 13:00:00,52.3,21.0,30.14,SE,143,7.0,11.0,29,0.00,,---,0.00,VWS V14.01,2013-04-06 18:00:00,
2013-04-06 13:03:00,52.2,20.1,30.14,ESE,120,9.0,10.0,28,0.00,,---,0.00,VWS V14.01,2013-04-06 18:03:00,
2013-04-06 13:08:00,52.4,21.1,30.14,SW,214,5.0,13.0,29,0.00,,---,0.00,VWS V14.01,2013-04-06 18:08:00,
2013-04-06 13:13:00,52.4,21.1,30.13,SSE,160,5.0,13.0,29,0.00,,---,0.00,VWS V14.01,2013-04-06 18:13:00,
2013-04-06 13:18:00,52.8,22.2,30.12,SW,218,3.0,13.0,30,0.00,,---,0.00,VWS V14.01,2013-04-06 18:18:00,
2013-04-06 13:23:00,53.1,20.9,30.12,SSE,162,3.0,13.0,28,0.00,,---,0.00,VWS V14.01,2013-04-06 18:23:00,
2013-04-06 13:28:00,53.0,20.8,30.12,SSE,148,5.0,13.0,28,0.00,,---,0.00,VWS V14.01,2013-04-06 18:28:00,
2013-04-06 13:30:00,53.0,20.8,30.12,SSE,148,5.0,13.0,28,0.00,,---,0.00,VWS V14.01,2013-04-06 18:30:00,
2013-04-06 13:33:00,53.3,21.9,30.11,SSW,210,3.0,9.0,29,0.00,,---,0.00,VWS V14.01,2013-04-06 18:33:00,
2013-04-06 13:38:00,53.7,21.4,30.11,South,172,9.0,12.0,28,0.00,,---,0.00,VWS V14.01,2013-04-06 18:38:00,
2013-04-06 13:43:00,53.8,21.5,30.10,SE,125,3.0,12.0,28,0.00,,---,0.00,VWS V14.01,2013-04-06 18:43:00,
2013-04-06 13:48:00,53.9,21.6,30.10,South,189,3.0,12.0,28,0.00,,---,0.00,VWS V14.01,2013-04-06 18:48:00,
2013-04-06 13:53:00,54.0,21.6,30.10,SW,232,2.0,12.0,28,0.00,,---,0.00,VWS V14.01,2013-04-06 18:53:00,
2013-04-06 13:58:00,53.9,20.7,30.09,ESE,103,6.0,12.0,27,0.00,,---,0.00,VWS V14.01,2013-04-06 18:58:00,
2013-04-06 14:00:00,53.9,20.7,30.09,ESE,103,6.0,12.0,27,0.00,,---,0.00,VWS V14.01,2013-04-06 19:00:00,
2013-04-06 14:03:00,53.8,21.5,30.09,SSW,204,7.0,12.0,28,0.00,,---,0.00,VWS V14.01,2013-04-06 19:03:00,
2013-04-06 14:08:00,54.2,21.8,30.09,WSW,243,3.0,12.0,28,0.00,,---,0.00,VWS V14.01,2013-04-06 19:08:00,
2013-04-06 14:13:00,54.7,21.4,30.09,SW,236,6.0,12.0,27,0.00,,---,0.00,VWS V14.01,2013-04-06 19:13:00,
2013-04-06 14:18:00,54.6,21.3,30.09,South,187,3.0,12.0,27,0.00,,---,0.00,VWS V14.01,2013-04-06 19:18:00,
2013-04-06 14:23:00,54.2,21.0,30.08,SE,129,7.0,12.0,27,0.00,,---,0.00,VWS V14.01,2013-04-06 19:23:00,
2013-04-06 14:28:00,54.2,21.8,30.08,ESE,108,4.0,12.0,28,0.00,,---,0.00,VWS V14.01,2013-04-06 19:28:00,
2013-04-06 14:30:00,54.2,21.8,30.08,ESE,108,4.0,12.0,28,0.00,,---,0.00,VWS V14.01,2013-04-06 19:30:00,
2013-04-06 14:33:00,54.2,21.8,30.07,SSE,160,3.0,8.0,28,0.00,,---,0.00,VWS V14.01,2013-04-06 19:33:00,
2013-04-06 14:38:00,54.5,22.1,30.07,SE,145,2.0,8.0,28,0.00,,---,0.00,VWS V14.01,2013-04-06 19:38:00,
2013-04-06 14:43:00,54.7,22.3,30.06,SE,131,2.0,8.0,28,0.00,,---,0.00,VWS V14.01,2013-04-06 19:43:00,
2013-04-06 14:48:00,54.9,22.4,30.06,ENE,70,4.0,9.0,28,0.00,,---,0.00,VWS V14.01,2013-04-06 19:48:00,
2013-04-06 14:53:00,54.7,22.3,30.06,SSE,168,2.0,9.0,28,0.00,,---,0.00,VWS V14.01,2013-04-06 19:53:00,
2013-04-06 14:58:00,54.6,21.3,30.06,SSE,148,5.0,10.0,27,0.00,,---,0.00,VWS V14.01,2013-04-06 19:58:00,
2013-04-06 15:00:00,54.6,21.3,30.06,SSE,148,5.0,10.0,27,0.00,,---,0.00,VWS V14.01,2013-04-06 20:00:00,
2013-04-06 15:03:00,54.3,21.9,30.05,SE,143,2.0,14.0,28,0.00,,---,0.00,VWS V14.01,2013-04-06 20:03:00,
2013-04-06 15:08:00,54.3,21.9,30.04,ESE,120,4.0,14.0,28,0.00,,---,0.00,VWS V14.01,2013-04-06 20:08:00,
2013-04-06 15:13:00,54.8,22.3,30.04,SSE,154,3.0,14.0,28,0.00,,---,0.00,VWS V14.01,2013-04-06 20:13:00,
2013-04-06 15:18:00,55.1,22.6,30.03,SSE,164,7.0,14.0,28,0.00,,---,0.00,VWS V14.01,2013-04-06 20:18:00,
2013-04-06 15:23:00,55.4,22.9,30.02,SW,221,5.0,14.0,28,0.00,,---,0.00,VWS V14.01,2013-04-06 20:23:00,
2013-04-06 15:28:00,55.8,23.2,30.02,South,171,6.0,6.0,28,0.00,,---,0.00,VWS V14.01,2013-04-06 20:28:00,
2013-04-06 15:30:00,55.8,23.2,30.02,South,187,4.0,14.0,28,0.00,,---,0.00,VWS V14.01,2013-04-06 20:30:00,
2013-04-06 15:33:00,55.5,22.1,30.01,ESE,111,5.0,11.0,27,0.00,,---,0.00,VWS V14.01,2013-04-06 20:33:00,
2013-04-06 15:38:00,55.5,23.0,30.01,SE,135,2.0,12.0,28,0.00,,---,0.00,VWS V14.01,2013-04-06 20:38:00,
2013-04-06 15:43:00,55.8,23.2,30.00,SE,141,4.0,12.0,28,0.00,,---,0.00,VWS V14.01,2013-04-06 20:43:00,
2013-04-06 15:48:00,56.2,23.5,30.00,SSW,202,2.0,12.0,28,0.00,,---,0.00,VWS V14.01,2013-04-06 20:48:00,
2013-04-06 15:53:00,56.4,24.6,30.00,ENE,73,6.0,12.0,29,0.00,,---,0.00,VWS V14.01,2013-04-06 20:53:00,
2013-04-06 15:58:00,56.1,22.6,30.00,SE,142,10.0,10.0,27,0.00,,---,0.00,VWS V14.01,2013-04-06 20:58:00,
2013-04-06 16:00:00,56.1,22.6,30.00,SSE,147,6.0,15.0,27,0.00,,---,0.00,VWS V14.01,2013-04-06 21:00:00,
2013-04-06 16:03:00,55.7,24.0,29.99,WSW,249,0.0,13.0,29,0.00,,---,0.00,VWS V14.01,2013-04-06 21:03:00,
2013-04-06 16:08:00,55.8,24.0,29.99,SE,129,4.0,13.0,29,0.00,,---,0.00,VWS V14.01,2013-04-06 21:08:00,
2013-04-06 16:13:00,56.1,24.3,29.99,SSW,207,3.0,13.0,29,0.00,,---,0.00,VWS V14.01,2013-04-06 21:13:00,
2013-04-06 16:18:00,56.6,23.9,29.99,SE,133,7.0,13.0,28,0.00,,---,0.00,VWS V14.01,2013-04-06 21:18:00,
2013-04-06 16:23:00,56.8,24.1,29.98,SSW,200,4.0,13.0,28,0.00,,---,0.00,VWS V14.01,2013-04-06 21:23:00,
2013-04-06 16:28:00,56.4,23.7,29.98,East,89,5.0,5.0,28,0.00,,---,0.00,VWS V14.01,2013-04-06 21:28:00,
2013-04-06 16:30:00,56.4,23.7,29.98,ESE,105,4.0,14.0,28,0.00,,---,0.00,VWS V14.01,2013-04-06 21:30:00,
2013-04-06 16:33:00,56.5,23.8,29.98,East,98,4.0,11.0,28,0.00,,---,0.00,VWS V14.01,2013-04-06 21:33:00,
2013-04-06 16:38:00,56.8,24.9,29.98,South,172,6.0,11.0,29,0.00,,---,0.00,VWS V14.01,2013-04-06 21:38:00,
2013-04-06 16:43:00,57.0,24.2,29.97,SE,132,4.0,14.0,28,0.00,,---,0.00,VWS V14.01,2013-04-06 21:43:00,
2013-04-06 16:48:00,57.2,24.4,29.97,SSE,162,7.0,16.0,28,0.00,,---,0.00,VWS V14.01,2013-04-06 21:48:00,
2013-04-06 16:53:00,57.0,24.2,29.97,South,172,8.0,16.0,28,0.00,,---,0.00,VWS V14.01,2013-04-06 21:53:00,
2013-04-06 16:58:00,56.7,24.0,29.97,East,84,5.0,6.0,28,0.00,,---,0.00,VWS V14.01,2013-04-06 21:58:00,
2013-04-06 17:00:00,56.7,24.0,29.97,East,82,6.0,16.0,28,0.00,,---,0.00,VWS V14.01,2013-04-06 22:00:00,
2013-04-06 17:03:00,56.8,24.1,29.96,SSE,162,3.0,15.0,28,0.00,,---,0.00,VWS V14.01,2013-04-06 22:03:00,
2013-04-06 17:08:00,57.2,24.4,29.96,South,169,4.0,15.0,28,0.00,,---,0.00,VWS V14.01,2013-04-06 22:08:00,
2013-04-06 17:13:00,57.1,24.3,29.95,SSW,207,5.0,15.0,28,0.00,,---,0.00,VWS V14.01,2013-04-06 22:13:00,
2013-04-06 17:18:00,56.9,24.1,29.95,SSE,150,7.0,15.0,28,0.00,,---,0.00,VWS V14.01,2013-04-06 22:18:00,
2013-04-06 17:23:00,56.6,23.9,29.95,SSE,159,2.0,15.0,28,0.00,,---,0.00,VWS V14.01,2013-04-06 22:23:00,
2013-04-06 17:29:00,56.4,23.7,29.95,SSE,167,9.0,9.0,28,0.00,,---,0.00,VWS V14.01,2013-04-06 22:29:00,
2013-04-06 17:30:00,56.4,23.7,29.95,ESE,110,6.0,15.0,28,0.00,,---,0.00,VWS V14.01,2013-04-06 22:30:00,
2013-04-06 17:34:00,56.2,23.5,29.95,SSE,155,2.0,9.0,28,0.00,,---,0.00,VWS V14.01,2013-04-06 22:34:00,
2013-04-06 17:39:00,56.1,23.5,29.95,ENE,71,4.0,10.0,28,0.00,,---,0.00,VWS V14.01,2013-04-06 22:39:00,
2013-04-06 17:44:00,55.9,23.3,29.94,SSE,150,3.0,15.0,28,0.00,,---,0.00,VWS V14.01,2013-04-06 22:44:00,
2013-04-06 17:49:00,55.8,24.0,29.94,SSW,192,1.0,15.0,29,0.00,,---,0.00,VWS V14.01,2013-04-06 22:49:00,
2013-04-06 17:54:00,55.8,23.2,29.94,SSW,204,2.0,15.0,28,0.00,,---,0.00,VWS V14.01,2013-04-06 22:54:00,
2013-04-06 17:59:00,55.6,23.0,29.94,East,86,2.0,5.0,28,0.00,,---,0.00,VWS V14.01,2013-04-06 22:59:00,
2013-04-06 18:00:00,55.6,22.2,29.94,SSE,158,2.0,15.0,27,0.00,,---,0.00,VWS V14.01,2013-04-06 23:00:00,
2013-04-06 18:04:00,55.4,22.9,29.94,SE,126,6.0,10.0,28,0.00,,---,0.00,VWS V14.01,2013-04-06 23:04:00,
2013-04-06 18:09:00,55.3,21.9,29.93,SSE,148,6.0,14.0,27,0.00,,---,0.00,VWS V14.01,2013-04-06 23:09:00,
2013-04-06 18:14:00,55.1,22.6,29.93,SSE,153,1.0,14.0,28,0.00,,---,0.00,VWS V14.01,2013-04-06 23:14:00,
2013-04-06 18:19:00,55.0,22.5,29.93,SE,138,2.0,14.0,28,0.00,,---,0.00,VWS V14.01,2013-04-06 23:19:00,
2013-04-06 18:24:00,54.9,22.4,29.93,South,187,3.0,14.0,28,0.00,,---,0.00,VWS V14.01,2013-04-06 23:24:00,
2013-04-06 18:29:00,54.8,22.3,29.93,South,174,3.0,6.0,28,0.00,,---,0.00,VWS V14.01,2013-04-06 23:29:00,
2013-04-06 18:30:00,54.8,22.3,29.93,West,263,1.0,14.0,28,0.00,,---,0.00,VWS V14.01,2013-04-06 23:30:00,
2013-04-06 18:34:00,54.6,23.0,29.93,ESE,106,3.0,7.0,29,0.00,,---,0.00,VWS V14.01,2013-04-06 23:34:00,
2013-04-06 18:39:00,54.6,23.0,29.92,SE,146,1.0,11.0,29,0.00,,---,0.00,VWS V14.01,2013-04-06 23:39:00,
2013-04-06 18:44:00,54.5,22.1,29.92,SSE,153,4.0,12.0,28,0.00,,---,0.00,VWS V14.01,2013-04-06 23:44:00,
2013-04-06 18:49:00,54.5,22.9,29.92,SSE,167,2.0,12.0,29,0.00,,---,0.00,VWS V14.01,2013-04-06 23:49:00,
2013-04-06 18:55:00,54.4,22.8,29.92,ESE,119,2.0,12.0,29,0.00,,---,0.00,VWS V14.01,2013-04-06 23:55:00,
2013-04-06 19:00:00,54.3,22.7,29.91,ESE,115,2.0,6.0,29,0.00,,---,0.00,VWS V14.01,2013-04-07 00:00:00,
2013-04-06 19:05:00,54.1,23.4,29.91,SSE,158,3.0,6.0,30,0.00,,---,0.00,VWS V14.01,2013-04-07 00:05:00,
2013-04-06 19:10:00,54.0,23.3,29.91,West,278,1.0,10.0,30,0.00,,---,0.00,VWS V14.01,2013-04-07 00:10:00,
2013-04-06 19:15:00,54.0,23.3,29.91,SE,129,3.0,11.0,30,0.00,,---,0.00,VWS V14.01,2013-04-07 00:15:00,
2013-04-06 19:20:00,54.0,23.3,29.91,SE,142,3.0,11.0,30,0.00,,---,0.00,VWS V14.01,2013-04-07 00:20:00,
2013-04-06 19:25:00,54.0,23.3,29.91,SSE,162,1.0,11.0,30,0.00,,---,0.00,VWS V14.01,2013-04-07 00:25:00,
2013-04-06 19:30:00,53.9,23.2,29.91,SSW,208,5.0,9.0,30,0.00,,---,0.00,VWS V14.01,2013-04-07 00:30:00,
2013-04-06 19:35:00,53.9,24.0,29.91,SE,140,1.0,9.0,31,0.00,,---,0.00,VWS V14.01,2013-04-07 00:35:00,
2013-04-06 19:40:00,53.9,24.0,29.91,SSE,166,2.0,9.0,31,0.00,,---,0.00,VWS V14.01,2013-04-07 00:40:00,
2013-04-06 19:45:00,53.7,23.8,29.91,ESE,121,1.0,9.0,31,0.00,,---,0.00,VWS V14.01,2013-04-07 00:45:00,
2013-04-06 19:50:00,53.7,23.8,29.91,SSE,148,0.0,9.0,31,0.00,,---,0.00,VWS V14.01,2013-04-07 00:50:00,
2013-04-06 19:55:00,53.4,24.3,29.91,ESE,102,2.0,9.0,32,0.00,,---,0.00,VWS V14.01,2013-04-07 00:55:00,
2013-04-06 20:00:00,53.5,23.6,29.90,South,180,4.0,8.0,31,0.00,,---,0.00,VWS V14.01,2013-04-07 01:00:00,
2013-04-06 20:05:00,53.6,23.7,29.90,SSE,148,4.0,10.0,31,0.00,,---,0.00,VWS V14.01,2013-04-07 01:05:00,
2013-04-06 20:10:00,53.6,23.7,29.90,SSE,157,2.0,10.0,31,0.00,,---,0.00,VWS V14.01,2013-04-07 01:10:00,
2013-04-06 20:15:00,53.5,23.6,29.90,SSE,157,3.0,10.0,31,0.00,,---,0.00,VWS V14.01,2013-04-07 01:15:00,
2013-04-06 20:20:00,53.6,23.7,29.89,SSE,159,3.0,10.0,31,0.00,,---,0.00,VWS V14.01,2013-04-07 01:20:00,
2013-04-06 20:25:00,53.7,23.0,29.89,SE,143,4.0,10.0,30,0.00,,---,0.00,VWS V14.01,2013-04-07 01:25:00,
2013-04-06 20:30:00,53.9,23.2,29.89,SE,127,2.0,6.0,30,0.00,,---,0.00,VWS V14.01,2013-04-07 01:30:00,
2013-04-06 20:35:00,53.8,23.1,29.89,SSW,198,2.0,7.0,30,0.00,,---,0.00,VWS V14.01,2013-04-07 01:35:00,
2013-04-06 20:40:00,53.8,23.1,29.89,SSE,156,5.0,7.0,30,0.00,,---,0.00,VWS V14.01,2013-04-07 01:40:00,
2013-04-06 20:45:00,53.8,23.1,29.88,SSE,158,3.0,7.0,30,0.00,,---,0.00,VWS V14.01,2013-04-07 01:45:00,
2013-04-06 20:50:00,53.8,23.1,29.88,SSE,150,2.0,8.0,30,0.00,,---,0.00,VWS V14.01,2013-04-07 01:50:00,
2013-04-06 20:55:00,53.8,23.1,29.88,SE,141,3.0,10.0,30,0.00,,---,0.00,VWS V14.01,2013-04-07 01:55:00,
2013-04-06 21:00:00,53.8,23.1,29.87,SSE,164,2.0,5.0,30,0.00,,---,0.00,VWS V14.01,2013-04-07 02:00:00,
2013-04-06 21:05:00,53.7,23.0,29.87,SSE,150,2.0,8.0,30,0.00,,---,0.00,VWS V14.01,2013-04-07 02:05:00,
2013-04-06 21:10:00,53.7,23.0,29.87,South,169,4.0,8.0,30,0.00,,---,0.00,VWS V14.01,2013-04-07 02:10:00,
2013-04-06 21:15:00,53.7,23.8,29.87,SW,222,3.0,8.0,31,0.00,,---,0.00,VWS V14.01,2013-04-07 02:15:00,
2013-04-06 21:20:00,53.6,23.7,29.86,SSE,153,5.0,8.0,31,0.00,,---,0.00,VWS V14.01,2013-04-07 02:20:00,
2013-04-06 21:25:00,53.7,23.8,29.86,SE,136,3.0,8.0,31,0.00,,---,0.00,VWS V14.01,2013-04-07 02:25:00,
2013-04-06 21:30:00,53.7,23.8,29.85,SE,136,2.0,8.0,31,0.00,,---,0.00,VWS V14.01,2013-04-07 02:30:00,
2013-04-06 21:35:00,53.8,23.9,29.85,ESE,108,2.0,8.0,31,0.00,,---,0.00,VWS V14.01,2013-04-07 02:35:00,
2013-04-06 21:40:00,53.8,23.9,29.85,ESE,108,3.0,8.0,31,0.00,,---,0.00,VWS V14.01,2013-04-07 02:40:00,
2013-04-06 21:45:00,53.8,23.9,29.85,SE,134,2.0,8.0,31,0.00,,---,0.00,VWS V14.01,2013-04-07 02:45:00,
2013-04-06 21:50:00,53.7,23.8,29.84,ESE,115,1.0,8.0,31,0.00,,---,0.00,VWS V14.01,2013-04-07 02:50:00,
2013-04-06 21:55:00,53.9,24.0,29.84,SW,228,4.0,11.0,31,0.00,,---,0.00,VWS V14.01,2013-04-07 02:55:00,
2013-04-06 22:00:00,54.1,24.2,29.84,ESE,110,0.0,5.0,31,0.00,,---,0.00,VWS V14.01,2013-04-07 03:00:00,
2013-04-06 22:05:00,54.2,24.2,29.84,SSE,153,4.0,12.0,31,0.00,,---,0.00,VWS V14.01,2013-04-07 03:05:00,
2013-04-06 22:10:00,54.2,24.2,29.84,ESE,105,2.0,12.0,31,0.00,,---,0.00,VWS V14.01,2013-04-07 03:10:00,
2013-04-06 22:15:00,54.3,24.3,29.83,SSE,165,1.0,12.0,31,0.00,,---,0.00,VWS V14.01,2013-04-07 03:15:00,
2013-04-06 22:20:00,54.5,24.5,29.83,SSW,204,5.0,12.0,31,0.00,,---,0.00,VWS V14.01,2013-04-07 03:20:00,
2013-04-06 22:25:00,54.5,24.5,29.83,South,183,6.0,12.0,31,0.00,,---,0.00,VWS V14.01,2013-04-07 03:25:00,
2013-04-06 22:30:00,54.6,24.6,29.83,SSE,154,6.0,11.0,31,0.00,,---,0.00,VWS V14.01,2013-04-07 03:30:00,
2013-04-06 22:35:00,54.7,24.7,29.83,SSE,151,7.0,13.0,31,0.00,,---,0.00,VWS V14.01,2013-04-07 03:35:00,
2013-04-06 22:40:00,54.8,24.8,29.83,ENE,77,2.0,13.0,31,0.00,,---,0.00,VWS V14.01,2013-04-07 03:40:00,
2013-04-06 22:45:00,54.8,24.8,29.82,South,188,1.0,13.0,31,0.00,,---,0.00,VWS V14.01,2013-04-07 03:45:00,
2013-04-06 22:50:00,54.8,24.8,29.82,SE,128,4.0,13.0,31,0.00,,---,0.00,VWS V14.01,2013-04-07 03:50:00,
2013-04-06 22:55:00,55.1,25.0,29.82,SE,134,5.0,13.0,31,0.00,,---,0.00,VWS V14.01,2013-04-07 03:55:00,
2013-04-06 23:00:00,55.2,25.1,29.82,SW,232,2.0,2.0,31,0.00,,---,0.00,VWS V14.01,2013-04-07 04:00:00,
2013-04-06 23:05:00,55.2,25.9,29.82,SSE,150,0.0,5.0,32,0.00,,---,0.00,VWS V14.01,2013-04-07 04:05:00,
2013-04-06 23:10:00,55.3,26.0,29.82,SSW,204,1.0,12.0,32,0.00,,---,0.00,VWS V14.01,2013-04-07 04:10:00,
2013-04-06 23:15:00,55.4,26.0,29.82,SSW,207,3.0,12.0,32,0.00,,---,0.00,VWS V14.01,2013-04-07 04:15:00,
2013-04-06 23:20:00,55.4,26.8,29.81,ESE,105,4.0,12.0,33,0.00,,---,0.00,VWS V14.01,2013-04-07 04:20:00,
2013-04-06 23:25:00,55.6,27.0,29.81,SSE,156,3.0,12.0,33,0.00,,---,0.00,VWS V14.01,2013-04-07 04:25:00,
2013-04-06 23:30:00,55.8,27.1,29.81,SSW,193,2.0,9.0,33,0.00,,---,0.00,VWS V14.01,2013-04-07 04:30:00,
2013-04-06 23:35:00,56.1,27.4,29.80,SSW,203,8.0,12.0,33,0.00,,---,0.00,VWS V14.01,2013-04-07 04:35:00,
2013-04-06 23:40:00,56.4,27.7,29.80,SSW,194,1.0,12.0,33,0.00,,---,0.00,VWS V14.01,2013-04-07 04:40:00,
2013-04-06 23:45:00,56.5,27.8,29.80,SSW,204,6.0,12.0,33,0.00,,---,0.00,VWS V14.01,2013-04-07 04:45:00,
2013-04-06 23:50:00,56.6,28.6,29.79,South,179,3.0,16.0,34,0.00,,---,0.00,VWS V14.01,2013-04-07 04:50:00,
2013-04-06 23:55:00,56.8,28.8,29.79,SSW,204,6.0,16.0,34,0.00,,---,0.00,VWS V14.01,2013-04-07 04:55:00,